Regional Weather Roundup
Issued by NWS

Home | Current Version | Previous Version | Graphics & Text | Print | Product List | Glossary On
Versions: 1 2 3 4 5 6 7 8 9 10 11 12 13 14 15 16 17 18 19 20 21 22 23 24 25 26 27 28 29 30 31 32 33 34 35 36 37 38 39 40 41 42 43 44 45 46 47 48 49 50
000
ASUS43 KLSX 042207
RWRMO

WEATHER SUMMARY FOR MISSOURI
NATIONAL WEATHER SERVICE SPRINGFIELD MO
500 PM CDT FRI SEP 04 2015

NOTE: "FAIR" INDICATES FEW OR NO CLOUDS BELOW 12,000 FEET WITH NO
       SIGNIFICANT WEATHER AND/OR OBSTRUCTIONS TO VISIBILITY.
       CURRENT SKY AND/OR WEATHER CONDITIONS ARE NOT AVAILABLE FOR
       CHILLICOTHE AND FARMINGTON.

MOZ001>031-035>038-043-044-053-054-042300-
...NORTHERN AND WESTERN MISSOURI...

CITY           SKY/WX    TMP DP  RH WIND       PRES   REMARKS
KANSAS CTY INT MOSUNNY   92  67  43 S15       29.94F HX  95
KANSAS C DTWN  MOSUNNY   93  68  43 S13       29.92F HX  97
LEE`S SUMMIT   SUNNY     90  65  43 S12G20    29.96S HX  92
ST JOSEPH      SUNNY     90  68  48 S16       29.91F HX  94
CHILLICOTHE      N/A     92  69  47 S9        29.95S HX  97
KIRKSVILLE     PTSUNNY   90  68  48 S9        29.98S HX  94

$$
MOZ066>068-077>081-088>096-101>105-042300-
...SOUTHWEST MISSOURI...

CITY           SKY/WX    TMP DP  RH WIND       PRES   REMARKS
SPRINGFIELD    MOSUNNY   89  67  47 S8        30.00F HX  92
JOPLIN         MOSUNNY   89  70  53 S8        29.97  HX  94

$$
MOZ032>034-039>042-045>050-055>058-069>072-042300-
...CENTRAL MISSOURI...

CITY           SKY/WX    TMP DP  RH WIND       PRES   REMARKS
COLUMBIA       MOSUNNY   91  68  46 SE6       29.99S HX  95
JEFFERSON CITY PTSUNNY   92  68  45 E8        29.96S HX  96
ROLLA          SUNNY     91  66  43 S6        30.00S HX  93
SEDALIA        MOSUNNY   93  65  39 S13       29.98F HX  95
WHITEMAN AFB   SUNNY     92  67  43 SW10      29.95S HX  95
WARRENSBURG    MOSUNNY   90  64  43 S6        29.96R HX  91
OSAGE BEACH    PTSUNNY   91  66  43 S9        30.00S HX  94

$$
MOZ051-052-059>065-042300-
...EAST CENTRAL MISSOURI...

CITY           SKY/WX    TMP DP  RH WIND       PRES   REMARKS
ST LOUIS INTL  MOSUNNY   92  66  42 S5        29.99S HX  94
SPIRIT OF STL  MOSUNNY   91  69  48 SW6       29.98R HX  96
ST CHARLES     MOSUNNY   93  68  43 W7        29.97S HX  97

$$
MOZ072>076-082>087-097>100-106>115-042300-
...SOUTH CENTRAL AND SOUTHEAST MISSOURI...

CITY           SKY/WX    TMP DP  RH WIND       PRES   REMARKS
CAPE GIRARDEAU SUNNY     90  71  53 E3        29.99S HX  96
FARMINGTON       N/A     90  66  45 SE3       30.04S HX  92
POPLAR BLUFF   MOSUNNY   89  70  53 SW3       29.98S HX  94
WEST PLAINS    MOSUNNY   89  66  46 SE6       30.04S HX  91

$$



USA.gov is the U.S. government's official web portal to all federal, state and local government web resources and services.